SES-10 (42432 NORAD) Tracking and Keplerian Element Data

This shows tracking and keplerian element data for the satellite.

Feedback or suggestion? Click here.




ElementValue
Catalog42432
NameSES-10
Epoch Orbit1100
Epoch Day91.80952255
Epoch Year2020
RAAN159.7824
Inclination0.0149
Eccentricity0.0002905
Argument of Perigee210.5147
Mean Anonmoly43.8588
Mean Motion1.0026868
Decay Rate-2.76E-06
L11 42432U 17017A 20091.80952255 -.00000276 00000-0 00000+0 0 9994
L22 42432 0.0149 159.7824 0002905 210.5147 43.8588 1.00268680 11002

Live tracking and technical data element details for SES-10 (NORAD 42432). SES-10 can be tracked NOW for your location showing map with azimuth and elevation plus other details from your city location.

Track the satellite on the map from your city or location and see movement details for azimuth, elevation, latitude, longitude, range, height, and movement on the map or in text.







IsCatalogInMostPopularTable: catalog: 42432, numindb: 386
Update: records affected: 1



GetName: 42432 SES-10

Hit Count: updated at: Thu, 02 Apr 2020 04:22:35 GMT